| time (UTC) | temp F | wind direction | speed MPH | gust MPH | rain 1hr in | rain 24hr in | rain mn in | humidity % | barometer mb |
| 20260505001454 | 74 | 177 | 2.0 | 7.0 | 0.00 | 0.00 | 0.00 | 45 | 1015.9 |
| 20260505000953 | 74 | 47 | 1.0 | 6.0 | 0.00 | 0.00 | 0.00 | 44 | 1015.8 |
| 20260504235946 | 75 | 142 | 2.0 | 7.0 | 0.00 | 0.00 | 0.00 | 44 | 1015.8 |
| 20260504235444 | 75 | 164 | 3.0 | 7.0 | 0.00 | 0.00 | 0.00 | 43 | 1015.8 |
| 20260504234945 | 75 | 187 | 2.0 | 7.0 | 0.00 | 0.00 | 0.00 | 43 | 1015.7 |
| 20260504234443 | 76 | 155 | 3.0 | 9.0 | 0.00 | 0.00 | 0.00 | 42 | 1015.7 |
| 20260504233945 | 76 | 92 | 2.0 | 9.0 | 0.00 | 0.00 | 0.00 | 42 | 1015.6 |
| 20260504232943 | 78 | 131 | 2.0 | 7.0 | 0.00 | 0.00 | 0.00 | 41 | 1015.6 |
| 20260504232442 | 78 | 152 | 2.0 | 7.0 | 0.00 | 0.00 | 0.00 | 41 | 1015.5 |
| 20260504231942 | 78 | 157 | 2.0 | 7.0 | 0.00 | 0.00 | 0.00 | 40 | 1015.4 |
| 20260504230937 | 79 | 112 | 4.0 | 14.0 | 0.00 | 0.00 | 0.00 | 39 | 1015.3 |
| 20260504230436 | 80 | 157 | 3.0 | 10.0 | 0.00 | 0.00 | 0.00 | 38 | 1015.3 |
| 20260504225948 | 81 | 162 | 1.0 | 8.0 | 0.00 | 0.00 | 0.00 | 37 | 1015.3 |
| 20260504224932 | 81 | 166 | 1.0 | 2.0 | 0.00 | 0.00 | 0.00 | 34 | 1015.1 |
| 20260504224437 | 80 | 166 | 1.0 | 5.0 | 0.00 | 0.00 | 0.00 | 35 | 1015.1 |
| 20260504223925 | 80 | 166 | 2.0 | 5.0 | 0.00 | 0.00 | 0.00 | 33 | 1015.1 |
| 20260504223420 | 81 | 189 | 2.0 | 7.0 | 0.00 | 0.00 | 0.00 | 34 | 1015.1 |
| 20260504222917 | 81 | 189 | 2.0 | 7.0 | 0.00 | 0.00 | 0.00 | 33 | 1015.2 |
| 20260504221919 | 82 | 102 | 2.0 | 6.0 | 0.00 | 0.00 | 0.00 | 32 | 1015.3 |
| 20260504220917 | 81 | 200 | 2.0 | 5.0 | 0.00 | 0.00 | 0.00 | 31 | 1015.5 |
| 20260504220415 | 81 | 137 | 2.0 | 6.0 | 0.00 | 0.00 | 0.00 | 34 | 1015.5 |
| 20260504215919 | 81 | 141 | 3.0 | 7.0 | 0.00 | 0.00 | 0.00 | 32 | 1015.4 |
| 20260504215411 | 81 | 132 | 3.0 | 8.0 | 0.00 | 0.00 | 0.00 | 33 | 1015.4 |
| 20260504214911 | 81 | 111 | 2.0 | 8.0 | 0.00 | 0.00 | 0.00 | 32 | 1015.5 |
| 20260504214414 | 82 | 156 | 2.0 | 8.0 | 0.00 | 0.00 | 0.00 | 32 | 1015.5 |
| 20260504213415 | 81 | 127 | 3.0 | 11.0 | 0.00 | 0.00 | 0.00 | 32 | 1015.5 |
| 20260504212913 | 81 | 190 | 3.0 | 11.0 | 0.00 | 0.00 | 0.00 | 31 | 1015.4 |
| 20260504212413 | 81 | 201 | 2.0 | 6.0 | 0.00 | 0.00 | 0.00 | 34 | 1015.4 |
| 20260504211913 | 81 | 195 | 1.0 | 4.0 | 0.00 | 0.00 | 0.00 | 37 | 1015.4 |
| 20260504211410 | 81 | 205 | 2.0 | 9.0 | 0.00 | 0.00 | 0.00 | 33 | 1015.4 |
| 20260504210911 | 81 | 206 | 2.0 | 11.0 | 0.00 | 0.00 | 0.00 | 36 | 1015.6 |
| 20260504210414 | 82 | 175 | 2.0 | 11.0 | 0.00 | 0.00 | 0.00 | 35 | 1015.7 |
| 20260504205925 | 82 | 174 | 2.0 | 6.0 | 0.00 | 0.00 | 0.00 | 34 | 1015.7 |
| 20260504205404 | 81 | 152 | 3.0 | 8.0 | 0.00 | 0.00 | 0.00 | 35 | 1015.7 |
| 20260504204906 | 81 | 107 | 2.0 | 8.0 | 0.00 | 0.00 | 0.00 | 35 | 1015.7 |
| 20260504203905 | 81 | 258 | 3.0 | 8.0 | 0.00 | 0.00 | 0.00 | 36 | 1015.8 |
| 20260504203415 | 80 | 252 | 4.0 | 9.0 | 0.00 | 0.00 | 0.00 | 34 | 1015.8 |
| 20260504202916 | 79 | 238 | 5.0 | 10.0 | 0.00 | 0.00 | 0.00 | 34 | 1015.9 |
| 20260504202414 | 80 | 220 | 4.0 | 10.0 | 0.00 | 0.00 | 0.00 | 36 | 1016.0 |
| 20260504201910 | 80 | 200 | 3.0 | 8.0 | 0.00 | 0.00 | 0.00 | 36 | 1016.1 |
| 20260504201403 | 80 | 94 | 3.0 | 8.0 | 0.00 | 0.00 | 0.00 | 35 | 1016.1 |
| 20260504200905 | 80 | 77 | 4.0 | 9.0 | 0.00 | 0.00 | 0.00 | 34 | 1016.2 |
| 20260504200403 | 80 | 138 | 5.0 | 10.0 | 0.00 | 0.00 | 0.00 | 37 | 1016.3 |
| 20260504195904 | 79 | 254 | 4.0 | 10.0 | 0.00 | 0.00 | 0.00 | 35 | 1016.2 |
| 20260504195404 | 79 | 120 | 2.0 | 5.0 | 0.00 | 0.00 | 0.00 | 33 | 1016.3 |
| 20260504194903 | 80 | 120 | 2.0 | 6.0 | 0.00 | 0.00 | 0.00 | 34 | 1016.5 |
| 20260504194403 | 80 | 92 | 2.0 | 6.0 | 0.00 | 0.00 | 0.00 | 37 | 1016.6 |
| 20260504193409 | 79 | 251 | 4.0 | 10.0 | 0.00 | 0.00 | 0.00 | 33 | 1016.6 |
| 20260504192905 | 79 | 226 | 3.0 | 10.0 | 0.00 | 0.00 | 0.00 | 36 | 1016.7 |
| 20260504192405 | 80 | 231 | 3.0 | 8.0 | 0.00 | 0.00 | 0.00 | 32 | 1016.9 |
| 20260504191905 | 80 | 146 | 4.0 | 9.0 | 0.00 | 0.00 | 0.00 | 33 | 1016.9 |
| 20260504191402 | 79 | 151 | 4.0 | 10.0 | 0.00 | 0.00 | 0.00 | 32 | 1016.9 |
| 20260504190905 | 78 | 202 | 3.0 | 10.0 | 0.00 | 0.00 | 0.00 | 35 | 1016.9 |
| 20260504185904 | 78 | 215 | 6.0 | 14.0 | 0.00 | 0.00 | 0.00 | 35 | 1017.0 |
| 20260504185403 | 78 | 185 | 4.0 | 14.0 | 0.00 | 0.00 | 0.00 | 34 | 1017.2 |
| 20260504183903 | 79 | 135 | 5.0 | 11.0 | 0.00 | 0.00 | 0.00 | 37 | 1017.5 |
| 20260504183403 | 79 | 152 | 4.0 | 11.0 | 0.00 | 0.00 | 0.00 | 36 | 1017.5 |
| 20260504182903 | 78 | 187 | 3.0 | 9.0 | 0.00 | 0.00 | 0.00 | 35 | 1017.5 |
| 20260504181903 | 78 | 258 | 4.0 | 10.0 | 0.00 | 0.00 | 0.00 | 37 | 1017.6 |
| 20260504181404 | 77 | 220 | 5.0 | 10.0 | 0.00 | 0.00 | 0.00 | 35 | 1017.6 |
| 20260504180903 | 78 | 183 | 3.0 | 9.0 | 0.00 | 0.00 | 0.00 | 35 | 1017.6 |
| 20260504180403 | 77 | 181 | 3.0 | 12.0 | 0.00 | 0.00 | 0.00 | 35 | 1017.6 |
| 20260504175902 | 77 | 116 | 3.0 | 12.0 | 0.00 | 0.00 | 0.00 | 34 | 1017.7 |
| 20260504175404 | 77 | 179 | 2.0 | 7.0 | 0.00 | 0.00 | 0.00 | 35 | 1017.7 |
| 20260504174904 | 77 | 87 | 3.0 | 12.0 | 0.00 | 0.00 | 0.00 | 39 | 1017.7 |
| 20260504174405 | 77 | 186 | 2.0 | 12.0 | 0.00 | 0.00 | 0.00 | 35 | 1017.8 |
| 20260504173907 | 78 | 141 | 2.0 | 6.0 | 0.00 | 0.00 | 0.00 | 42 | 1017.7 |
| 20260504172905 | 76 | 181 | 2.0 | 8.0 | 0.00 | 0.00 | 0.00 | 34 | 1017.8 |
| 20260504172403 | 76 | 106 | 3.0 | 8.0 | 0.00 | 0.00 | 0.00 | 39 | 1017.9 |
| 20260504171905 | 76 | 173 | 3.0 | 8.0 | 0.00 | 0.00 | 0.00 | 35 | 1017.9 |
| 20260504171405 | 77 | 171 | 2.0 | 7.0 | 0.00 | 0.00 | 0.00 | 38 | 1017.9 |
| 20260504170903 | 76 | 166 | 2.0 | 7.0 | 0.00 | 0.00 | 0.00 | 38 | 1017.9 |
| 20260504170404 | 76 | 181 | 2.0 | 4.0 | 0.00 | 0.00 | 0.00 | 38 | 1017.9 |
| 20260504160339 | 74 | 293 | 3.0 | 5.0 | 0.00 | 0.00 | 0.00 | 39 | 1018.7 |
| 20260504150829 | 73 | 235 | 2.0 | 4.0 | 0.00 | 0.00 | 0.00 | 39 | 1019.2 |
| 20260504150326 | 73 | 281 | 3.0 | 6.0 | 0.00 | 0.00 | 0.00 | 43 | 1019.2 |
| 20260504141322 | 70 | 198 | 3.0 | 7.0 | 0.00 | 0.00 | 0.00 | 61 | 1019.3 |
| 20260504140821 | 69 | 272 | 4.0 | 9.0 | 0.00 | 0.00 | 0.00 | 63 | 1019.3 |
| 20260504140331 | 69 | 227 | 4.0 | 9.0 | 0.00 | 0.00 | 0.00 | 65 | 1019.2 |
| 20260504130808 | 64 | 223 | 4.0 | 7.0 | 0.00 | 0.00 | 0.00 | 81 | 1019.2 |
| 20260504130308 | 63 | 211 | 3.0 | 7.0 | 0.00 | 0.00 | 0.00 | 83 | 1019.3 |
| 20260504120303 | 54 | 156 | 0.0 | 0.0 | 0.00 | 0.00 | 0.00 | 95 | 1018.9 |
| 20260504110239 | 49 | 156 | 0.0 | 0.0 | 0.00 | 0.00 | 0.00 | 94 | 1018.7 |
| 20260504100228 | 49 | 156 | 0.0 | 1.0 | 0.00 | 0.00 | 0.00 | 93 | 1018.2 |
| 20260504081712 | 51 | 156 | 0.0 | 1.0 | 0.00 | 0.00 | 0.00 | 93 | 1018.4 |
| 20260504081211 | 51 | 156 | 0.0 | 1.0 | 0.00 | 0.00 | 0.00 | 92 | 1018.3 |
| 20260504080716 | 51 | 156 | 0.0 | 0.0 | 0.00 | 0.00 | 0.00 | 93 | 1018.3 |
| 20260504080214 | 51 | 156 | 0.0 | 0.0 | 0.00 | 0.00 | 0.00 | 93 | 1018.4 |
| 20260504070204 | 51 | 156 | 0.0 | 0.0 | 0.00 | 0.00 | 0.00 | 92 | 1018.9 |
| 20260504050128 | 54 | 156 | 0.0 | 0.0 | 0.00 | 0.00 | 0.00 | 88 | 1019.3 |
| 20260504045623 | 54 | 156 | 0.0 | 0.0 | 0.00 | 0.00 | 0.00 | 88 | 1019.2 |
| 20260504045127 | 54 | 156 | 0.0 | 0.0 | 0.00 | 0.00 | 0.00 | 88 | 1019.3 |
| 20260504044620 | 54 | 156 | 0.0 | 0.0 | 0.00 | 0.00 | 0.00 | 88 | 1019.3 |
| 20260504044119 | 54 | 156 | 0.0 | 0.0 | 0.00 | 0.00 | 0.00 | 87 | 1019.3 |
| 20260504043115 | 55 | 156 | 0.0 | 0.0 | 0.00 | 0.00 | 0.00 | 87 | 1019.3 |
| 20260504042621 | 55 | 156 | 0.0 | 1.0 | 0.00 | 0.00 | 0.00 | 86 | 1019.3 |
| 20260504042117 | 55 | 156 | 0.0 | 1.0 | 0.00 | 0.00 | 0.00 | 86 | 1019.3 |
| 20260504041612 | 55 | 156 | 0.0 | 0.0 | 0.00 | 0.00 | 0.00 | 86 | 1019.3 |
| 20260504041109 | 55 | 156 | 0.0 | 0.0 | 0.00 | 0.00 | 0.00 | 85 | 1019.2 |
| 20260504040605 | 56 | 156 | 0.0 | 0.0 | 0.00 | 0.00 | 0.00 | 85 | 1019.2 |
| 20260504035107 | 56 | 156 | 0.0 | 0.0 | 0.00 | 0.00 | 0.00 | 84 | 1019.3 |
| 20260504034606 | 57 | 156 | 0.0 | 0.0 | 0.00 | 0.00 | 0.00 | 83 | 1019.4 |
| 20260504033603 | 57 | 156 | 0.0 | 0.0 | 0.00 | 0.00 | 0.00 | 82 | 1019.4 |
| 20260504033101 | 57 | 156 | 0.0 | 0.0 | 0.00 | 0.00 | 0.00 | 82 | 1019.3 |
| 20260504032601 | 58 | 156 | 0.0 | 0.0 | 0.00 | 0.00 | 0.00 | 81 | 1019.4 |
| 20260504032102 | 58 | 156 | 0.0 | 0.0 | 0.00 | 0.00 | 0.00 | 81 | 1019.2 |
| 20260504031102 | 59 | 156 | 0.0 | 0.0 | 0.00 | 0.00 | 0.00 | 80 | 1019.2 |
| 20260504030601 | 59 | 156 | 0.0 | 0.0 | 0.00 | 0.00 | 0.00 | 80 | 1019.2 |
| 20260504030109 | 59 | 156 | 0.0 | 1.0 | 0.00 | 0.00 | 0.00 | 79 | 1019.2 |
| 20260504025606 | 59 | 156 | 0.0 | 1.0 | 0.00 | 0.00 | 0.00 | 79 | 1019.1 |
| 20260504025106 | 59 | 156 | 0.0 | 1.0 | 0.00 | 0.00 | 0.00 | 79 | 1019.1 |
| 20260504024603 | 59 | 156 | 0.0 | 1.0 | 0.00 | 0.00 | 0.00 | 79 | 1019.0 |
| 20260504024104 | 59 | 156 | 0.0 | 1.0 | 0.00 | 0.00 | 0.00 | 79 | 1019.0 |
| 20260504023102 | 59 | 156 | 0.0 | 1.0 | 0.00 | 0.00 | 0.00 | 79 | 1018.9 |
| 20260504022101 | 60 | 156 | 0.0 | 5.0 | 0.00 | 0.00 | 0.00 | 78 | 1018.8 |
| 20260504021603 | 60 | 156 | 0.0 | 1.0 | 0.00 | 0.00 | 0.00 | 78 | 1018.8 |
| 20260504020603 | 60 | 156 | 1.0 | 7.0 | 0.00 | 0.00 | 0.00 | 77 | 1018.6 |
| 20260504020113 | 59 | 160 | 1.0 | 7.0 | 0.00 | 0.00 | 0.00 | 78 | 1018.5 |
| 20260504015603 | 59 | 220 | 0.0 | 0.0 | 0.00 | 0.00 | 0.00 | 78 | 1018.4 |
| 20260504015101 | 60 | 220 | 0.0 | 0.0 | 0.00 | 0.00 | 0.00 | 77 | 1018.3 |
| 20260504014603 | 60 | 220 | 0.0 | 0.0 | 0.00 | 0.00 | 0.00 | 76 | 1018.2 |
| 20260504013601 | 60 | 220 | 0.0 | 0.0 | 0.00 | 0.00 | 0.00 | 75 | 1018.1 |
| 20260504013101 | 61 | 220 | 0.0 | 0.0 | 0.00 | 0.00 | 0.00 | 74 | 1018.1 |
| 20260504012101 | 61 | 220 | 0.0 | 0.0 | 0.00 | 0.00 | 0.00 | 72 | 1018.0 |
| 20260504011602 | 62 | 220 | 0.0 | 0.0 | 0.00 | 0.00 | 0.00 | 72 | 1018.0 |
| 20260504011101 | 62 | 220 | 0.0 | 0.0 | 0.00 | 0.00 | 0.00 | 71 | 1017.9 |
| 20260504010607 | 62 | 220 | 0.0 | 0.0 | 0.00 | 0.00 | 0.00 | 70 | 1017.9 |
| 20260504010110 | 63 | 220 | 0.0 | 0.0 | 0.00 | 0.00 | 0.00 | 70 | 1017.8 |
| 20260504005101 | 64 | 220 | 0.0 | 0.0 | 0.00 | 0.00 | 0.00 | 66 | 1017.7 |
| 20260504004601 | 64 | 220 | 0.0 | 0.0 | 0.00 | 0.00 | 0.00 | 66 | 1017.7 |
| 20260504004104 | 65 | 220 | 0.0 | 0.0 | 0.00 | 0.00 | 0.00 | 65 | 1017.6 |
| 20260504003602 | 66 | 220 | 0.0 | 0.0 | 0.00 | 0.00 | 0.00 | 64 | 1017.5 |
| 20260504003058 | 66 | 220 | 0.0 | 0.0 | 0.00 | 0.00 | 0.00 | 62 | 1017.5 |
| 20260504002556 | 67 | 220 | 0.0 | 0.0 | 0.00 | 0.00 | 0.00 | 59 | 1017.5 |
| 20260504002057 | 67 | 220 | 0.0 | 0.0 | 0.00 | 0.00 | 0.00 | 57 | 1017.5 |